AirNav   ATP
 
 567 users online  

NY09 Middle Hope Airport
Newburgh, New York, USA

GOING TO NEWBURGH?


FAA INFORMATION EFFECTIVE 29 MARCH 2018

Location

FAA Identifier: NY09
Lat/Long: 41-33-40.3370N / 074-00-58.5050W
41-33.672283N / 074-00.975083W
41.5612047 / -74.0162514
(estimated)
Elevation: 450 ft. / 137 m (estimated)
Variation: 13W (1985)
From city: 3 miles N of NEWBURGH, NY
Time zone: UTC -4 (UTC -5 during Standard Time)
Zip code: 12550

Airport Operations

Airport use: Private use. Permission required prior to landing
Activation date: 05/1960
Control tower: no
ARTCC: NEW YORK CENTER
FSS: NEW YORK FLIGHT SERVICE STATION
Attendance: UNATNDD
Wind indicator: yes
Segmented circle: no

Airport Communications

WX ASOS at POU (7 nm NE): 126.75 (845-462-0648)
WX ASOS at MGJ (12 nm W): 119.275 (845-457-1486)

Nearby radio navigation aids

VOR radial/distance  VOR name  Freq  Var
IGNr246/10.7KINGSTON VOR/DME117.6012W
PWLr248/22.4PAWLING VOR/DME114.3012W
CMKr323/25.8CARMEL VOR/DME116.6012W
HUOr082/27.4HUGUENOT VOR/DME116.1011W
SAXr049/37.8SPARTA VORTAC115.7011W

 
NDB name  Hdg/Dist  Freq  Var  ID
STANWYCK045/2.426112WSKU ... -.- ..-
NEELY079/10.533514WSW ... .--

Airport Services

Airframe service: NONE
Powerplant service: NONE

Runway Information

Runway 9/27

Dimensions: 1600 x 90 ft. / 488 x 27 m
Surface: turf
RUNWAY 9  RUNWAY 27
Traffic pattern: leftleft
Obstructions: road, 1:1 slope to cleartree, 100 ft. from runway, 4:1 slope to clear

Airport Ownership and Management from official FAA records

Ownership: Privately-owned
Owner: T. F. & D. B. TAYLOR
78HOLMES RD
NEWBURGH, NY 12550
Phone 845-564-1931
Manager: T. F. TAYLOR
78 HOLMES RD
NEWBURGH, NY 12550
Phone 845-562-0489

Airport Operational Statistics

Aircraft operations: 10/year *
100% local general aviation
* for 12-month period ending 08 June 1981

Instrument Procedures

There are no published instrument procedures at NY09.

Some nearby airports with instrument procedures:

KSWF - Stewart International Airport (5 nm SW)
KPOU - Hudson Valley Regional Airport (7 nm NE)
KMGJ - Orange County Airport (12 nm W)
44N - Sky Acres Airport (15 nm NE)
06N - Randall Airport (19 nm SW)
N89 - Joseph Y Resnick Airport (19 nm NW)
N82 - Wurtsboro-Sullivan County Airport (20 nm W)
 
Loc | Ops | Rwys | IFR | FBO | Links
Com | Nav | Svcs | Stats | Notes

AirNav Hotels Sweepstakes
 
Area around NY09 (Middle Hope Airport)
 
Road maps at: MapQuest Bing Google
 
Aerial photo
No photo
 
Sectional chart

 
Airport distance calculator
Flying to Middle Hope Airport? Find the distance to fly.

From to NY09

Sunrise and sunset
Times for 26-Apr-2018
 Local
(UTC-4)
 Zulu
(UTC)
Morning civil twilight05:3109:31
Sunrise06:0110:01
Sunset19:4723:47
Evening civil twilight20:1700:17

Current date and time
Zulu (UTC)  26-Apr-2018 04:54:51
Local (UTC-4)  26-Apr-2018 00:54:51
 
METAR
KSWF 
5nm SW 
260345Z 00000KT 2SM BR OVC003 14/14 A2965
KPOU 
7nm NE 
260416Z AUTO 00000KT 1SM BR OVC003 14/13 A2962 RMK AO2 CIG 002V006 T01390128
KMGJ 
12nm W 
SuperAWOS
260433Z AUTO 30004KT 1/4SM FG VV003 12/12 A2962 RMK AO2 RAE05 P0000 T01220122
TAF
KSWF 
5nm SW 
252055Z 2521/2624 09007KT 2SM -DZ BR OVC004 FM252200 VRB05KT 1/2SM -DZ FG OVC002 FM260300 VRB05KT 1/4SM FG OVC004 FM260800 30007KT 3SM BR SCT004 OVC015 FM261000 29010KT P6SM FEW010 BKN025 FM261200 28012KT P6SM SCT035 SCT100 FM261500 27012G20KT P6SM SCT250 AMD NOT SKED
KPOU 
7nm NE 
260256Z 2603/2624 VRB03KT 6SM BR VCSH OVC010 TEMPO 2603/2607 2SM -SHRA BR BKN004 FM260800 26008KT 6SM BR VCSH OVC015 FM261200 25007KT P6SM SCT015 OVC025 FM261500 27010G18KT P6SM SCT025 BKN050
NOTAMs
Click for the latest NOTAMs
NOTAMs are issued by the DoD/FAA and will open in a separate window not controlled by AirNav.

 

 
 

Would you like to see your business listed on this page?

 If your business provides an interesting product or service to pilots, flight crews, aircraft, or users of the Middle Hope Airport, you should consider listing it here.  To start the listing process, click on the button below
 
Add a business
 

Other Pages about Middle Hope Airport

Update a link
 
Copyright © AirNav, LLC. All rights reserved. Privacy Policy  Contact